This is the latest recevied weather packets stored in our database for station/object K5NAN. If no packets are shown the sender has not sent any weather packets the latest 10 day(s).
| Time | Temp. | Humidity | Pressure | Rain* | Wind** | Luminosity | Snow |
|---|---|---|---|---|---|---|---|
| 1777925809 | 26.11° C | 48% | 1008.1 hPa | 0 mm | - | 743 W/m² | - |
| 1777925506 | 26.11° C | 50% | 1008.2 hPa | 0 mm | - | 721 W/m² | - |
| 1777925203 | 25.56° C | 49% | 1008.4 hPa | 0 mm | - | 725 W/m² | - |
| 1777924900 | 25.56° C | 48% | 1008.5 hPa | 0 mm | - | 641 W/m² | - |
| 1777924596 | 25.56° C | 49% | 1008.5 hPa | 0 mm | - | 759 W/m² | - |
| 1777924292 | 25.56° C | 48% | 1008.7 hPa | 0 mm | - | 757 W/m² | - |
| 1777923989 | 25.56° C | 49% | 1008.7 hPa | 0 mm | - | 675 W/m² | - |
| 1777923685 | 26.11° C | 47% | 1008.6 hPa | 0 mm | - | 712 W/m² | - |
| 1777923382 | 25.56° C | 47% | 1008.8 hPa | 0 mm | - | 836 W/m² | - |
| 1777923080 | 25.56° C | 48% | 1009.1 hPa | 0 mm | - | 804 W/m² | - |
| 1777922778 | 25.56° C | 48% | 1009 hPa | 0 mm | - | 815 W/m² | - |
| 1777922476 | 25° C | 48% | 1009.2 hPa | 0 mm | - | 728 W/m² | - |
| 1777922174 | 25.56° C | 48% | 1009.2 hPa | 0 mm | - | 831 W/m² | - |
| 1777921870 | 25.56° C | 47% | 1009.2 hPa | 0 mm | - | 842 W/m² | - |
| 1777921566 | 25.56° C | 47% | 1009.3 hPa | 0 mm | - | 849 W/m² | - |
| 1777921262 | 25° C | 49% | 1009.4 hPa | 0 mm | - | 843 W/m² | - |
| 1777920959 | 25° C | 48% | 1009.5 hPa | 0 mm | - | 803 W/m² | - |
| 1777920655 | 25° C | 49% | 1009.3 hPa | 0 mm | - | 792 W/m² | - |
| 1777920351 | 25° C | 49% | 1009.5 hPa | 0 mm | - | 816 W/m² | - |
| 1777920046 | 25° C | 47% | 1009.7 hPa | 0 mm | - | 784 W/m² | - |
| 1777919744 | 24.44° C | 48% | 1009.6 hPa | 0 mm | - | 819 W/m² | - |
| 1777919442 | 24.44° C | 49% | 1009.9 hPa | 0 mm | - | 752 W/m² | - |
| 1777919139 | 23.89° C | 48% | 1009.9 hPa | 0 mm | - | 788 W/m² | - |
| 1777918836 | 23.89° C | 49% | 1010.1 hPa | 0 mm | - | 793 W/m² | - |
| 1777918533 | 24.44° C | 49% | 1010 hPa | 0 mm | - | 481 W/m² | - |
* Rain latest hour (hover to see other rain measurements)
** Current wind speed in m/s (hover to see current wind gust speed)